Tracking 31027 objects as of 19-Jul-2025
HD Live streaming from Space Station
objects crossing your sky now

ARIANE 5 DEB (SYLDA)

Track ARIANE 5 DEB (SYLDA) now!


NORAD ID: 44037
Int'l Code: 2019-007D
Perigee: 297.4 km
Apogee: 33,711.0 km
Inclination: 3.1 °
Period: 592.8 minutes
Semi major axis: 23375 km
RCS: Unknown
Launch date: February 5, 2019
Source: France (FR)
Launch site: FRENCH GUIANA (FRGUI)

Note: This is SATELLITE DEBRIS
Your satellite tracking list
IRIDIUM 106
Track 1 satellite(s)




NASA's NSSDC Master Catalog

Two Line Element Set (TLE):
1 44037U 19007D   25199.63275653  .00000702  00000-0  30270-3 0  9992
2 44037   3.1032 345.8622 7147225  23.6306 357.1406  2.42923276 54863
Source of the keplerian elements: AFSPC